Location: Newark
(41.9364°N, 2.8061°E)
Time: 13:17:41
(UTC+00:00)

Vanguard 2 - Visible Passes

Search period start: 21 February 2020 00:00
Search period end: 02 March 2020 00:00
Orbit: 552 x 2939 km, 32.9° (Epoch: 21 February)

Date Brightness Start Highest point End Pass type
(mag) Time Alt. Az. Time Alt. Az. Time Alt. Az.
21 Feb 10.3 02:23:27 41° SE 02:23:27 41° SE 02:35:45 10° E visible
21 Feb 10.1 04:24:50 33° WSW 04:31:56 60° S 04:49:05 10° ESE visible
22 Feb 11.5 00:38:49 11° E 00:38:49 11° E 00:39:13 10° E visible
22 Feb 10.0 02:40:13 47° SSE 02:40:13 47° SSE 02:53:57 10° E visible
22 Feb 10.2 04:41:37 28° WSW 04:49:50 60° S 05:07:02 10° ESE visible
23 Feb 11.3 00:55:34 15° E 00:55:34 15° E 00:58:02 10° E visible
23 Feb 9.8 02:56:58 53° SSE 02:56:58 53° SSE 03:12:04 10° E visible
23 Feb 10.3 04:58:22 23° WSW 05:07:44 59° S 05:24:52 10° ESE visible
24 Feb 11.0 01:12:19 20° ESE 01:12:19 20° ESE 01:16:31 10° E visible
24 Feb 9.7 03:13:43 55° S 03:14:39 56° S 03:30:08 10° E visible
24 Feb 10.4 05:15:06 18° W 05:25:37 55° S 05:42:35 10° ESE visible
25 Feb 10.8 01:29:05 25° ESE 01:29:05 25° ESE 01:34:47 10° E visible
25 Feb 9.6 03:30:29 53° SSW 03:32:29 57° S 03:48:08 10° ESE visible
25 Feb 10.5 05:31:53 13° W 05:43:30 51° SSW 06:00:08 10° SE visible
26 Feb 10.6 01:45:52 30° ESE 01:45:52 30° ESE 01:52:58 10° E visible
26 Feb 9.6 03:47:16 48° SW 03:50:20 57° S 04:06:04 10° ESE visible
26 Feb 10.6 05:48:59 10° W 06:01:19 45° SSW 06:17:28 10° SE visible
27 Feb 10.3 02:02:39 36° ESE 02:02:39 36° ESE 02:11:04 10° E visible
27 Feb 9.7 04:04:04 41° SW 04:08:13 54° S 04:23:53 10° ESE visible
28 Feb 10.1 02:19:29 41° SE 02:19:29 41° SE 02:29:06 10° ESE visible
28 Feb 9.9 04:20:53 34° WSW 04:26:05 50° SSW 04:41:33 10° ESE visible
29 Feb 9.9 02:36:20 46° SE 02:36:20 46° SE 02:47:04 10° ESE visible
29 Feb 10.0 04:37:45 27° WSW 04:43:57 45° SSW 04:59:00 10° SE visible
01 Mar 11.3 00:51:50 11° E 00:51:50 11° E 00:52:20 10° E visible
01 Mar 9.7 02:53:14 48° SSE 02:53:14 48° SSE 03:04:57 10° ESE visible
01 Mar 10.2 04:54:39 21° WSW 05:01:48 39° SSW 05:16:13 10° SE visible
